Starlink 34927

operational
NORAD ID: 65196 Int'l Des: 2025-175 Owner: SPXS Country: US Constellation: starlink
LEOCIRCULARRETROGRADESSO

About Starlink 34927

Description loading...

Live Position

Loading 3D Globe...

Upcoming Passes

Altitude History

Altitude vs Time

uPlot chart will show altitude changes over time

Two-Line Element Set

1 65196U 25175Y 25315.19300921 .00014469 00000-0 10045-2 0 9994
2 65196 97.6002 185.9113 0002523 75.1320 285.0186 15.05664626 14816
Epoch: Nov 11, 2025 • Age: 27 hours

Current Status

Altitude 551.0 km
Velocity 7.59 km/s
Sub-Earth Point 6.96°N, 17.74°E
Launch Date Aug 14, 2025
Age 0.2 years
Type internet

Technical Details

Classification Payload
Mass 575.00 kg
Dry Mass 530.00 kg
Total Mass 575.00 kg
Length 0.30 m
Diameter 4.10 m
Span 29.00 m
Shape Box + pan
Manufacturer SPXS
Bus Type Starlink V2MO
Phase Status In Orbit
Owner/State SPXS/US

Large Constellations

Loading constellations...